Location: Kawakawa
(35.3830°S, 174.0670°E)
Time: 13:01:25
(UTC+13:00)

Explorer 7 - Pass Details

Date: 11 December 2019
Orbit: 485 x 679 km, 50.3° (Epoch: 22 January)

Event Time Altitude Azimuth Distance (km) Brightness Sun altitude
Rises 11:21:39 0° 228° (SW) 2,612 10.0 62.1°
Reaches altitude 10° 11:23:50 10° 224° (SW) 1,742 9.2 62.6°
Maximum altitude 11:27:44 61° 143° (SE) 606 8.2 63.3°
Drops below altitude 10° 11:31:50 10° 61° (ENE) 1,821 10.1 64.1°
Sets 11:34:09 0° 57° (ENE) 2,744 10.7 64.5°
